Location: Marcé
(47.5801°N, 0.3280°W)
Time: 23:53:04
(UTC+01:00)

Vanguard 2 - Pass Details

Date: 01 December 2021
Orbit: 553 x 2936 km, 32.9° (Epoch: 20 January)

Event Time Altitude Azimuth Distance (km) Brightness Sun altitude
Rises 18:20:48 0° 254° (WSW) 3,856 13.3 -11.2°
Reaches altitude 10° 18:23:30 10° 243° (WSW) 3,181 12.2 -11.6°
Maximum altitude 18:30:19 29° 186° (S) 2,680 10.5 -12.7°
Drops below altitude 10° 18:40:22 10° 134° (SE) 4,783 11.3 -14.3°
Sets 18:45:34 0° 126° (SE) 6,159 11.8 -15.2°
